Weather in Kopor'ye

Russia / Saint-Petersburg and Leningrad Oblast     59°42′15″N   29°02′55″E
temp.,
°C
wind,
m/s
gust,
m/s
humid.,
%
clouds,
%
prec.,
mm/h
press.,
hPa
HPBL,
m
18 april, sun
sun1800:00+5ene310755 0.0 1029246
03:00+3ene39881 0.0 1029190
06:00+3ene310920 0.0 1029222
09:00+7ene48694 0.0 1030439
12:00+10ene57520 0.0 1029928
15:00+11ne57460 0.0 10291116
18:00+10ne47543 0.0 1028973
21:00+7ene411675 0.0 1029356
19 april, mon
mon1900:00+5ene38795 0.0 1030197
03:00+4e268824 0.0 1030111
06:00+4ene378990 0.0 1030175
09:00+7ene467328 0.0 1030396
12:00+10ene46566 0.0 1029936
15:00+11ne46505 0.0 10281205
18:00+10ne56525 0.0 10281061
21:00+6ene39600 0.0 1028244
20 april, tue
tue2000:00+4e38710 0.0 1027146
03:00+3ese38724 0.0 1026164
06:00+2e38718 0.0 1026172
09:00+6ese48520 0.0 1025669
12:00+8e474554 0.0 10231349
15:00+9ese4641100 0.0 10211456
18:00+8ese465397 0.0 10201156
21:00+5sse3679100 0.0 1019407
21 april, wed
wed2100:00+5e1587100 0.1 1017426
03:00+5e2588100 0.1 1015424
06:00+4ne2491100 0.0 1012251
09:00+5ne3783100 0.0 1010513
12:00+5ne4686100 0.0 1007704
15:00+3ne3695100 1.0 1006439
18:00+2nne2499100 0.7 1005251
21:00+1nnw2395100 0.8 1006328
22 april, thu
thu2200:00+1nw2497100 0.1 1006212
03:00+2wnw149287 0.1 1008202
06:00+2sw2592100 0.0 1009202
09:00+4wsw3791100 0.1 1011339
12:00+6w357588 0.0 1013662
15:00+8nw246473 0.1 1015764
18:00+8nnw126537 0.0 1017511
21:00+4e11817 0.0 101810